Regional Weather Roundup
Issued by NWS Charleston, SC

Current Version | Previous Version | Text Only | Print | Product List | Glossary Off
Versions: 1 2 3 4 5 6 7 8 9 10 11 12 13 14 15 16 17 18 19 20 21 22 23 24 25 26 27 28 29 30 31 32 33 34 35 36 37 38 39 40 41 42 43 44 45 46 47 48 49 50
000 ASUS42 KCHS 020827 RWRCHS REGIONAL WEATHER ROUNDUP NATIONAL WEATHER SERVICE CHARLESTON SC 400 AM EDT THU JUL 02 2015 NOTE: "FAIR" INDICATES FEW OR NO CLOUDS BELOW 12,000 FEET WITH NO SIGNIFICANT WEATHER AND/OR OBSTRUCTIONS TO VISIBILITY. NOT ALL STATIONS ARE QUALITY CONTROLLED BY THE NATIONAL WEATHER SERVICE. USE DATA WITH CAUTION...ESPECIALLY DEWPOINT OBSERVATIONS. SCZ027-030-031-034>040-042>050-020900- ...SOUTHEAST SOUTH CAROLINA... CITY SKY/WX TMP DP RH WIND PRES REMARKS N CHARLESTON PTCLDY 76 70 82 SW8 29.97F WATERFRONT PAR N/A 78 72 81 SW5 29.95F MOUNT PLEASANT FAIR 77 72 83 SW6 29.97F JOHNS ISLAND FAIR 73 70 88 SW7 29.98F PINOPOLIS NOT AVBL MONCKS CORNER FAIR 75 70 83 W3 29.97F SUMMERVILLE FAIR 72 72 100 CALM 29.99S BEAUFORT MCAS MOCLDY 72 69 90 SW5 30.00F BEAUFORT ARPT FAIR 72 72 100 SW5 29.99F FOG HILTON HEAD IS PTCLDY 75 70 83 S3 30.01F WALTERBORO PTSUNNY 72 68 88 W3 30.00S ALLENDALE FAIR 73 68 83 CALM 29.99S ...SOUTHERN MIDLANDS AND PEE DEE... CITY SKY/WX TMP DP RH WIND PRES REMARKS GEORGETOWN NOT AVBL KINGSTREE NOT AVBL ORANGEBURG CLOUDY 74 69 85 SW7 29.99S BARNWELL FAIR 73 66 78 CALM 30.00S AIKEN NOT AVBL MANNING FAIR 73 70 88 SW5 29.97S COLUMBIA CLOUDY 75 66 73 W7 29.96F SUMTER CLOUDY 75 69 82 SW8 29.94F FLORENCE CLOUDY 76 71 85 SW6 29.94F MYRTLE BEACH PTCLDY 79 70 73 SW6 29.97F N MYRTLE BEACH MOCLDY 79 71 76 SW8 29.95F $$ GAZ063-065-086>088-099>101-113>116-118-119-134>141-150-020900- ...SOUTHEAST GEORGIA... CITY SKY/WX TMP DP RH WIND PRES REMARKS SAVANNAH ARPT MOCLDY 75 66 73 SW3 30.01F HUNTER AAF MOCLDY 76 70 81 SW2 29.99F FORT STEWART MOCLDY 75 68 78 S3 29.99F STATESBORO NOT AVBL SYLVANIA NOT AVBL CLAXTON NOT AVBL ...CSRA...CENTRAL AND FAR SOUTHEAST GEORGIA... CITY SKY/WX TMP DP RH WIND PRES REMARKS THOMSON NOT AVBL AUGUSTA-BUSH PTCLDY 68 66 93 CALM 29.99F AUGUSTA-DANIEL PTCLDY 72 66 81 CALM 30.00F SWAINSBORO NOT AVBL VIDALIA NOT AVBL EASTMAN NOT AVBL HAZLEHURST NOT AVBL ALMA PTCLDY 74 72 93 S3 30.02F WAYCROSS NOT AVBL JESUP NOT AVBL BAXLEY NOT AVBL BRUNSWICK NOT AVBL SAINT SIMONS MOCLDY 76 72 87 W5 30.02F $$ SCZ027-028-034-036>038-045-046-048>050-GAZ119-141-020900- ...LAKE AND SUPPLEMENTAL COASTAL OBSERVATIONS... STATION/POSITION TIME TEMP WIND PRES WAVE SWELL AIR SEA DIR/SP/G HT/PER HT/PER/DIR (UTC) (F) (DEG/KT/KT) (MB) (FT/S) (FT/S/D) UPR LAKE MARION NOT AVBL WINYAH BAY 0700 78 240/ 6 1014.0F LAKE MURRAY 0700 75 260/ 9/ 12 1014.6S ACE BASIN NERRS NOT AVBL FORT PULASKI 0800 77 84 210/ 5/ 7 1016.5F SAPELO ISLAND 0800 76 210/ 5 1017.0S $$ ANZ835-935-AMZ111-154-330-350-352-354-370-450-454-472-020900- ...C-MAN AND BUOY OBSERVATIONS... STATION/POSITION TIME TEMP WIND PRES WAVE SWELL AIR SEA DIR/SP/G HT/PER HT/PER/DIR (UTC) (F) (DEG/KT/KT) (MB) (FT/S) (FT/S/D) BUOY 41004 0750 81 82 240/ 14/ 16 1015.0F 4/ 6 2/ 7 BUOY 41008 0750 79 79 250/ 10/ 12 1016.9F 2/ 8 2/100/ 8 FOLLY BEACH CMAN 0800 76 230/ 8/ 10 1015.3F CAPERS NEARSHORE 0708 81 260/ 14/ 17 1015.6F FRIPP NEARSHORE 0700 81 260/ 12/ 14 1016.1 STATION/POSITION TIME TEMP WIND PRES WAVE SWELL AIR SEA DIR/SP/G HT/PER HT/PER/DIR (UTC) (F) (DEG/KT/KT) (MB) (FT/S) (FT/S/D) 5E ST. MARYS GA 0721 77 N/A 2/ 8 FRYING PAN BUOY 0750 81 80 220/ 16/ 17 1015.0F 4/ 6 2/110/ 8 BUOY 41025 0750 80 82 230/ 14/ 16 1013.8F 5/ 6 3/320/12 CAPE LOOKOUT NC 0800 79 230/ 10/ 13 1013.8F BUOY 41002 0750 81 80 220/ 17/ 21 1018.0F 6/ 7 2/120/11 BUOY 41010 0720 83 84 200/ 10/ 12 1019.4F ST AUGUSTINE FL 0800 75 73 200/ 5/ 6 1018.5F $$

USA.gov is the U.S. government's official web portal to all federal, state and local government web resources and services.